TimeMDT,TemperatureF,Dew PointF,Humidity,Sea Level PressureIn,VisibilityMPH,Wind Direction,Wind SpeedMPH,Gust SpeedMPH,PrecipitationIn,Events,Conditions,WindDirDegrees,DateUTC
12:15 AM,51.8,48.2,88,30.26,10.0,East,5.8,-,N/A,,Clear,90,2013-07-30 06:15:00
12:35 AM,51.8,48.2,88,30.26,10.0,ESE,4.6,-,N/A,,Clear,120,2013-07-30 06:35:00
12:55 AM,51.8,48.2,88,30.27,10.0,Calm,Calm,-,N/A,,Scattered Clouds,0,2013-07-30 06:55:00
1:15 AM,51.8,48.2,88,30.27,10.0,ESE,5.8,-,N/A,,Partly Cloudy,110,2013-07-30 07:15:00
1:35 AM,50.0,48.2,94,30.28,10.0,ESE,4.6,-,N/A,,Clear,110,2013-07-30 07:35:00
3:15 AM,46.4,44.6,93,30.28,10.0,North,3.5,-,N/A,,Clear,10,2013-07-30 09:15:00
3:35 AM,44.6,44.6,100,30.29,10.0,North,4.6,-,N/A,,Clear,350,2013-07-30 09:35:00
3:55 AM,44.6,42.8,93,30.29,10.0,Calm,Calm,-,N/A,,Clear,0,2013-07-30 09:55:00
4:15 AM,44.6,42.8,93,30.29,10.0,North,8.1,-,N/A,,Clear,10,2013-07-30 10:15:00
4:35 AM,44.6,42.8,93,30.29,10.0,North,8.1,-,N/A,,Clear,360,2013-07-30 10:35:00
4:55 AM,44.6,44.6,100,30.30,10.0,North,3.5,-,N/A,,Clear,10,2013-07-30 10:55:00
5:15 AM,44.6,44.6,100,30.30,10.0,Calm,Calm,-,N/A,,Clear,0,2013-07-30 11:15:00
5:35 AM,44.6,44.6,100,30.30,10.0,NNE,4.6,-,N/A,,Scattered Clouds,20,2013-07-30 11:35:00
5:55 AM,42.8,41.0,93,30.31,10.0,NNE,3.5,-,N/A,,Partly Cloudy,30,2013-07-30 11:55:00
6:16 AM,42.8,42.8,100,30.31,10.0,NNW,4.6,-,N/A,,Clear,340,2013-07-30 12:16:00
6:35 AM,42.8,42.8,100,30.32,10.0,NNE,3.5,-,N/A,,Clear,20,2013-07-30 12:35:00
6:51 AM,42.8,41.0,93,30.32,10.0,Calm,Calm,-,N/A,,Clear,0,2013-07-30 12:51:00
7:51 AM,48.2,46.4,93,30.33,10.0,Calm,Calm,-,N/A,,Clear,0,2013-07-30 13:51:00
8:53 AM,53.6,48.2,82,30.33,10.0,North,3.5,-,N/A,,Clear,360,2013-07-30 14:53:00
9:52 AM,59.0,48.2,67,30.33,10.0,Calm,Calm,-,N/A,,Clear,0,2013-07-30 15:52:00
10:54 AM,64.4,50.0,59,30.32,10.0,Calm,Calm,-,N/A,,Clear,0,2013-07-30 16:54:00
11:53 AM,69.8,51.8,53,30.32,10.0,SW,3.5,-,N/A,,Clear,220,2013-07-30 17:53:00
12:52 PM,75.2,46.4,36,30.30,10.0,South,4.6,-,N/A,,Clear,180,2013-07-30 18:52:00
1:51 PM,73.4,44.6,36,30.29,10.0,SSW,15.0,21.9,N/A,,Mostly Cloudy,200,2013-07-30 19:51:00
2:51 PM,75.2,44.6,34,30.28,10.0,South,8.1,17.3,N/A,,Scattered Clouds,180,2013-07-30 20:51:00
3:51 PM,78.8,39.2,24,30.25,10.0,SW,17.3,23.0,N/A,,Scattered Clouds,230,2013-07-30 21:51:00
4:56 PM,73.4,39.2,29,30.28,10.0,South,28.8,34.5,N/A,,Scattered Clouds,170,2013-07-30 22:56:00
5:54 PM,75.2,37.4,25,30.27,10.0,South,18.4,28.8,N/A,,Partly Cloudy,170,2013-07-30 23:54:00
6:51 PM,75.2,42.8,31,30.27,10.0,South,11.5,17.3,N/A,,Clear,190,2013-07-31 00:51:00
7:51 PM,66.2,44.6,46,30.28,10.0,WSW,10.4,-,N/A,,Clear,250,2013-07-31 01:51:00
8:51 PM,62.6,44.6,52,30.29,10.0,SW,8.1,-,N/A,,Clear,220,2013-07-31 02:51:00
9:15 PM,60.8,44.6,55,30.31,10.0,WSW,8.1,-,N/A,,Clear,240,2013-07-31 03:15:00
9:35 PM,62.6,44.6,52,30.32,10.0,WSW,9.2,-,N/A,,Clear,240,2013-07-31 03:35:00
10:15 PM,62.6,44.6,52,30.34,10.0,North,15.0,20.7,N/A,,Clear,10,2013-07-31 04:15:00
10:35 PM,60.8,44.6,55,30.35,10.0,North,9.2,-,N/A,,Mostly Cloudy,360,2013-07-31 04:35:00
11:15 PM,59.0,44.6,59,30.35,10.0,NNE,5.8,-,N/A,,Clear,20,2013-07-31 05:15:00
11:35 PM,57.2,44.6,63,30.36,10.0,Calm,Calm,-,N/A,,Clear,0,2013-07-31 05:35:00
11:55 PM,57.2,44.6,63,30.36,10.0,NNE,4.6,-,N/A,,Clear,30,2013-07-31 05:55:00